FENGYUN 1C DEB, 31252

Orbit data source: Space-Track

FENGYUN 1C DEB, 31252 is space debris in SSO originally from a launch on Mon, 10 May 1999 UTC launched from the Taiyaun Space Center, China (TSC). Fengyun 1C debris stems from the Chinese weather satellite Fengyun-1C, which was intentionally destroyed by a Chinese anti-satellite missile in 2007. This event dramatically increased the amount of space debris, with thousands of trackable fragments posing hazards to satellites and human spaceflight. The Fengyun 1C debris cloud has become a focal point in discussions about space sustainability and the need for international regulations to prevent the creation of new debris.

Loading next visibility...
Identifier
31252, 1999-025BMJ
Orbit
SSO
Country
Flag of CNCN / PRC
Related business
Manufacturer
Unknown
Mission
Spacecraft
Bus & Motor
Unknown
Mass
Unknown
Launch date (UTC)
1999-05-10 (27 years ago)
Launch vehicle
Unknown
Launch site
Taiyaun Space Center, China (TSC)
Object type
Payload
Rocket body
Debris
Shape & HBR
Unknown shape, 0.1 m
Radar Cross Section
Small (<0.1 m²)

Expand to show TLE details & history
Last TLE update: 12 hours ago

TLE from 12 hours ago
0 FENGYUN 1C DEB
1 31252U 99025BMJ 26062.83261921  .00002211  00000-0  54623-3 0  9995
2 31252  98.3126  84.4351 0211295 288.1188  69.7092 14.40512900983745
Epoch: 2026-03-03T19:58Z
TLE epoch observation values (Epoch: 2026-03-03T19:58:58.299Z)
Latitude
-0.00011°
Longitude
-16.91381°
Altitude
710.303 km
Speed
7.526 km/s
True Right ascension
05h 37m 44s
True Declination
0° 00' 00"
Sunlit
Object was in daylight at epoch
Visualization orbit readout
Latitude
Unknown
Longitude
Unknown
Altitude
Unknown
Speed
Unknown
Apparent Right ascension
Unknown
Apparent Declination
Unknown
Sunlit
N/A
Visualization observer readout
Local Sidereal Time
11:34:14
Azimuth
Unknown
Elevation
Unknown
Doppler factor
Unknown
Orbital elements
Apogee altitude
904.612 km
Perigee altitude
603.218 km
Semi-major axis
7,132.052 km
Eccentricity
0.02113
Inclination
98.3126°
RAAN
84.4351°
Arg. of periapsis
288.1188°
True anomaly
72.00058°
Mean anomaly
69.7092°
Eccentric anomaly
70.85286°
Mean motion
3.60347 °/min
Orbital period
99.9 mins
BSTAR
0.00054623
Loading maneuver chart data...
Computing Atmospheric mass density...

Documentation

Showing up to 5 results
|